Погода в Мемфисе

США     35°08′53″N   90°02′35″W
темп.,
°C
ветер,
м/с
пор.,
м/с
влажн.,
%
обл.,
%
осадки,
мм/ч
давл.,
гПа
погр.,
м
31 июля, сб
сб3101:00+26св1282100 0.5 101664
04:00+25ссв1188100 0.0 101536
07:00+25с1188100 0.0 101676
10:00+30ссв21686 0.0 1017642
13:00+34сз23514 0.0 10161298
16:00+35сз33485 0.0 10141830
19:00+33св21579 0.0 1013368
22:00+29юв24720 0.0 1013126
1 августа, вс
вс101:00+28юз266711 0.0 1013170
04:00+26вюв2277100 0.0 101326
07:00+24ссв5889100 0.1 1015337
10:00+27вюв4573100 0.1 1015488
13:00+30с5463100 0.2 10161238
16:00+29св2363100 0.1 1015874
19:00+28с4675100 0.4 1013584
22:00+25всв228642 0.2 101565
2 августа, пн
пн201:00+23всв129385 0.9 101627
04:00+21св249254 0.4 101596
07:00+21св25913 0.4 1016133
10:00+27св33680 0.0 1016677
13:00+28ссв336234 0.8 10161238
16:00+28с556339 1.4 10151305
19:00+26ссв47650 1.4 1014763
22:00+22св411690 0.0 1016414
3 августа, вт
вт301:00+20св3107298 0.0 1016336
04:00+18с357797 0.0 1015141
07:00+17с36810 0.0 1016184
10:00+23с46610 0.0 1017738
13:00+26с45485 0.0 10171630
16:00+28с45432 0.0 10152009
19:00+24с4864100 0.0 1015395
22:00+23ссв356492 0.0 1016177
4 августа, ср
ср401:00+19св38780 0.0 1016173
04:00+18ссв39720 0.0 1016222
07:00+17ссв38750 0.0 1017200
10:00+24ссв45570 0.0 1018543
13:00+28ссв55440 0.0 10182017
16:00+29всв554467 0.0 10162195
19:00+25св47620 0.0 1017575
22:00+22ссв38705 0.0 1017201